User: anonymous   Login
Location: Laguna de la Cañada del Gallo
(40.3974°N, 5.2096°W)
Time: 12:47:49
(UTC+00:00)
Language:

ATLAS CENTAUR R/B - Orbit

View from above orbital plane
View from above orbital plane
View from above satellite
View from above satellite

Ground track
Ground track

The orbit data is extracted from the following two-line orbital elements,

1 38770U 12048N   24171.95750774  .00011352  00000-0  50449-3 0  9996
2 38770  64.6481 185.4957 0105622  19.8872 340.6320 15.16959991  6588
Epoch (UTC): 19 June 2024 22:58:48
Eccentricity: 0.0105622
inclination: 64.6481°
perigee height: 442 km
apogee height: 588 km
right ascension of ascending node: 185.4957°
argument of perigee: 19.8872°
revolutions per day: 15.16959991
mean anomaly at epoch: 340.6320°
orbit number at epoch: 658

The dashed part of the orbit path shows where the satellite is in the earth's shadow,  

DLR